Regional Weather Roundup
Issued by NWS Northern Indiana

Home | Current Version | Previous Version | Graphics & Text | Print | Product List | Glossary On
Versions: 1 2 3 4 5 6 7 8 9 10 11 12 13 14 15 16 17 18 19 20 21 22 23 24 25 26 27 28 29 30 31 32 33 34 35 36 37 38 39 40 41 42 43 44 45 46 47 48 49 50
000
ASUS43 KIWX 062110
RWRIWX

KIWX WEATHER ROUNDUP
NATIONAL WEATHER SERVICE NORTHERN INDIANA
500 PM EDT MON JUL 06 2015

NOTE: "FAIR" INDICATES FEW OR NO CLOUDS BELOW 12,000 FEET WITH NO
SIGNIFICANT WEATHER AND/OR OBSTRUCTIONS TO VISIBILITY.

* THESE STATIONS ARE NOT UNDER NWS QUALITY CONTROL. THEY ALSO MAY NOT
  REPORT WEATHER SUCH AS PRECIPITATION OR FOG.

INZ001>027-062200-
NORTHERN INDIANA

CITY           SKY/WX    TMP DP  RH WIND       PRES   REMARKS
GARY*          CLOUDY   N/A N/A N/A S6        29.92F
VALPARAISO     PTSUNNY   84  69  60 S12       29.95F
MICHIGAN CITY* PTSUNNY   82  66  57 S12G21    29.94F
LAPORTE*       PTSUNNY   85  70  60 SW9       29.95F
KNOX*          PTSUNNY   84  64  51 S12G20    29.95S
SOUTH BEND     PTSUNNY   85  67  54 SW16      29.95F
ELKHART*       SUNNY     84  64  51 S10       29.96F
GOSHEN         MOSUNNY   83  66  56 SW16      29.96F
MONTICELLO*    PTSUNNY   85  71  63 S10       29.96F
LOGANSPORT*    MOSUNNY   84  61  45 S12       29.98S
ROCHESTER*     PTSUNNY   86  66  51 S9G16     29.98S
WARSAW*          N/A     82  64  54 S8        29.97F
ANGOLA*          N/A     84  66  54 SW12      29.99S
FORT WAYNE     PTSUNNY   85  65  51 SW15      29.99F
HUNTINGTON*    MOSUNNY   83  65  54 S8        29.98F
PERU/GRISSOM   MOSUNNY   84  67  57 SW12      29.97F
MARION*        MOSUNNY   83  65  53 S14       29.99F

$$
INZ028>050-062200-
CENTRAL INDIANA

CITY           SKY/WX    TMP DP  RH WIND       PRES   REMARKS
LAFAYETTE      CLOUDY    83  70  64 S9        29.96F
KOKOMO*        MOSUNNY   84  64  51 S14       29.97F
MUNCIE*        MOSUNNY   84  65  52 S12G20    30.00F
INDIANAPOLIS   MOSUNNY   85  61  44 SW9G20    29.99F

$$
MIZ043>046-050>051-056>058-064>065-071>073-077>080-062200-
SOUTHWEST LOWER MICHIGAN

CITY           SKY/WX    TMP DP  RH WIND       PRES   REMARKS
BATTLE CREEK   MOSUNNY   83  66  56 S15       29.97F
BENTON HARBOR  PTSUNNY   85  68  56 S13       29.92F
COLDWATER*     MOSUNNY   82  65  57 S6        29.97F
HILLSDALE*     SUNNY     83  64  52 SW7       30.00R
HOLLAND        PTSUNNY   87  66  49 S9        29.93F
GRAND RAPIDS   CLOUDY    84  64  50 S10       29.93F
KALAMAZOO      MOSUNNY   84  66  54 S15       29.95F
STURGIS*       MOSUNNY   81  68  65 S13       29.96F
THREE RIVERS*  FAIR      83  65  56 S10       29.96F

$$
OHZ001>008-015>018-024>025-062200-
NORTHWEST OHIO

CITY           SKY/WX    TMP DP  RH WIND       PRES   REMARKS
DEFIANCE       SUNNY     85  64  49 S7G17     29.98F
FINDLAY        SUNNY     84  61  45 SW7       30.00F
TOLEDO EXPRESS SUNNY     83  61  47 S8        29.98F
TOLEDO METCALF SUNNY     84  59  42 VRB6      30.00F
LIMA           SUNNY     83  64  52 SW9       30.01F

$$
AND FOR LAKE MICHIGAN COASTAL AND OPEN LAKE BUOY OBSERVATIONS

STATION/POSITION TEMP    WIND        PRES    VSBY  WAVE
                 AIR SEA DIR/SP/G                  HT/PER
                 (F)     (DEG/KT/KT) (MB)    (MI)  (FT/S)
CALUMET HARBOR    85     180/  8/ 16   N/A
MICHIGAN CITY     82     180/ 14/ 19   N/A
BURNS HARBOR      84     180/ 12/ 21 1013.9S
SAINT JOSEPH      83     180/ 10/ 15 1013.5F
4 MI NW BRIDGMAN  73 66  240/  6/  8   N/A           1/ 2
MICHIGAN CITY     77 68  210/ 10/ 12   N/A           1/ 2

$$
&&


USA.gov is the U.S. government's official web portal to all federal, state and local government web resources and services.